Wind_Speed
9 8 9 9 6 6 6 5 4 4 3 2 1 1 2 1 3 3 3 4 5 7 7 5 6 7 9 11 12 11 9 8 8 10 10 12 14 16 18 16 12 10 12 14 17 20 20 21 21 21 23 25 27 27 25 24 23 24 23 22 21 18 13 11 5 4 11 17 19 16 11 10 14 18 21 24 27 28 29 31 32 34 34 34 33
10 9 10 10 8 7 6 5 5 5 4 3 2 2 3 1 2 2 2 4 4 5 5 5 5 7 10 11 11 11 11 10 10 10 10 12 13 15 18 17 12 9 11 15 17 20 22 23 22 21 22 23 26 27 26 25 24 24 24 22 21 19 14 12 10 5 8 15 19 17 14 11 11 13 16 19 23 27 29 29 30 31 31 32 32
11 11 12 11 9 7 7 6 5 6 6 5 4 3 3 1 2 1 2 3 3 3 3 3 4 7 10 11 10 11 11 11 11 11 11 12 13 15 17 19 15 9 11 15 18 19 22 23 23 22 21 21 24 26 26 26 25 24 24 22 21 20 16 14 12 7 6 12 17 18 16 13 10 11 14 16 18 23 27 28 28 28 28 29 30
13 13 13 11 9 8 8 7 6 7 6 6 6 4 4 3 1 1 1 3 2 1 1 2 3 7 10 10 9 10 10 10 11 12 12 12 14 15 16 19 16 11 10 14 18 20 21 22 23 22 21 21 21 23 25 25 25 25 24 23 21 20 19 17 15 13 10 11 15 17 16 14 11 9 12 14 16 18 22 24 25 26 25 24 25
15 15 14 12 10 10 10 9 8 8 7 7 7 6 5 4 3 3 1 1 1 1 0 0 2 6 9 10 9 9 9 9 10 12 13 12 13 15 15 17 17 13 11 12 15 18 19 20 22 21 19 20 20 21 23 24 25 25 24 23 22 21 20 19 18 18 17 13 14 15 16 16 15 12 10 13 14 16 17 20 22 23 23 22 22
17 16 15 13 11 12 12 11 10 10 8 8 8 7 5 4 6 5 2 1 1 1 1 2 2 5 8 9 9 8 8 8 9 11 12 12 12 13 14 14 15 14 12 10 11 14 15 17 19 19 18 18 18 17 20 22 23 24 23 21 21 21 21 21 19 19 18 16 15 16 16 16 16 16 11 10 13 13 14 16 18 20 20 21 21
19 18 16 13 13 14 14 13 12 11 9 8 9 8 6 5 6 7 4 2 1 1 2 3 2 4 7 9 9 8 7 7 8 10 12 12 12 12 13 14 14 14 13 11 10 11 13 15 18 18 16 16 15 13 16 20 21 21 22 20 19 20 21 20 20 19 17 16 16 15 15 16 16 16 14 10 12 13 12 13 15 17 17 17 17
21 19 17 15 14 15 15 13 13 12 10 9 9 9 8 7 6 6 5 4 2 1 2 3 2 3 5 9 9 7 6 5 7 8 10 12 12 11 12 14 14 14 14 13 11 11 12 15 17 16 15 15 13 10 12 16 18 19 20 19 19 19 19 20 20 19 17 15 15 14 14 16 17 16 15 15 11 8 11 13 14 15 16 16 16
22 20 18 16 15 15 15 14 14 13 12 11 10 9 9 8 7 6 6 5 3 2 2 3 2 2 4 7 9 8 6 5 5 6 7 10 11 9 9 11 13 14 15 15 14 14 13 14 16 15 14 14 12 9 9 11 13 15 16 17 18 17 18 19 19 18 17 14 13 13 12 13 15 15 15 16 13 7 13 16 16 16 16 16 17
23 22 20 18 16 15 15 16 16 15 13 13 12 11 10 10 8 7 7 6 5 3 2 3 2 2 3 5 8 9 6 4 5 5 5 7 9 7 6 8 10 11 14 16 16 15 14 14 16 14 13 14 13 10 9 8 9 11 12 14 15 15 16 18 18 17 16 14 12 11 10 10 13 14 13 14 11 10 16 17 16 17 16 14 15
23 22 21 18 16 16 17 18 17 16 15 14 13 12 11 11 10 9 8 7 6 5 4 3 2 0 2 4 7 9 7 5 4 3 3 5 7 6 3 4 7 9 12 16 17 15 14 15 16 15 13 13 13 11 9 8 8 10 11 13 14 14 14 15 17 17 16 14 11 10 10 10 12 14 13 13 10 9 15 16 16 15 13 9 9
23 23 21 19 18 18 18 18 18 17 16 15 15 13 12 12 12 11 10 9 8 7 5 4 3 1 2 3 6 8 7 5 3 2 3 4 6 5 2 2 4 8 11 15 16 16 15 15 15 15 13 12 13 11 9 8 8 9 10 12 13 12 11 13 16 18 16 14 13 12 11 10 11 13 12 12 9 9 14 14 13 13 12 10 10
23 23 21 20 20 20 19 19 18 17 17 16 15 15 14 14 13 12 10 9 9 8 7 5 3 2 2 3 5 8 7 5 3 1 2 4 5 3 2 3 4 7 11 14 16 16 15 15 15 15 14 12 11 10 9 8 8 8 9 11 12 11 9 10 13 16 17 17 15 14 13 11 12 12 10 9 8 12 15 13 12 13 14 13 13
24 23 22 21 21 21 21 20 18 17 17 17 16 16 16 16 14 13 11 10 10 9 8 6 4 3 2 2 4 7 7 5 3 1 1 4 4 2 4 5 5 7 10 13 15 15 14 14 15 15 14 14 13 11 10 9 9 8 9 12 14 12 8 6 8 13 17 18 17 17 16 14 14 12 7 6 9 15 17 14 13 14 15 15 15
25 23 23 23 23 23 22 20 19 18 19 19 18 18 17 16 16 14 12 11 11 9 8 8 6 4 3 2 4 6 7 5 4 2 2 4 4 5 6 6 6 8 10 13 14 14 13 13 13 14 14 15 15 13 12 11 11 10 11 14 15 13 9 7 7 9 13 16 16 17 17 16 15 12 7 7 13 17 17 16 15 17 17 16 16
25 25 24 25 25 25 24 22 20 21 22 21 20 18 18 17 16 14 12 12 12 10 9 9 7 5 3 3 4 6 6 5 4 3 3 4 5 7 7 7 7 8 10 12 13 12 12 12 13 14 15 15 15 15 14 13 12 11 13 17 17 14 12 10 10 9 10 13 14 15 15 15 15 13 8 11 17 19 18 18 17 18 19 16 15
26 26 26 27 27 27 26 24 23 23 24 23 21 20 18 17 16 14 12 13 13 11 10 10 8 6 4 4 4 5 5 4 4 3 3 3 4 6 8 8 8 8 9 11 11 11 11 12 13 14 15 16 16 16 15 14 13 13 15 17 17 16 14 12 11 9 9 10 11 12 13 13 14 13 10 13 17 17 18 17 13 15 16 12 10
28 28 28 28 28 28 27 27 26 25 25 24 23 21 19 18 17 16 14 14 13 12 11 10 8 6 4 3 3 4 4 3 4 4 3 2 2 5 7 9 8 6 7 9 10 10 11 12 14 15 16 16 16 15 15 15 15 14 16 17 17 16 13 10 9 10 10 11 12 14 15 14 15 16 14 13 13 14 15 14 11 13 15 11 10
30 29 30 29 29 29 28 28 29 28 26 25 24 22 20 20 18 16 15 14 13 12 12 11 9 6 3 1 2 3 2 4 4 5 5 5 4 5 7 9 8 7 7 8 10 11 11 13 14 15 16 16 16 15 14 15 15 15 15 16 17 16 13 9 7 8 10 12 13 15 16 15 16 18 17 15 13 12 12 11 12 14 14 11 11
32 31 30 29 29 29 29 30 30 30 28 28 25 22 21 20 18 16 14 14 13 13 13 13 10 7 3 0 2 3 3 5 5 6 7 8 7 6 7 7 8 9 10 11 12 12 12 12 13 14 16 16 16 15 14 14 15 15 15 15 15 15 16 13 7 5 7 9 12 15 16 16 16 17 17 16 15 13 12 11 11 13 12 11 11
31 30 30 29 29 30 30 31 31 31 29 28 26 23 21 21 19 18 15 14 14 14 14 14 11 7 4 1 2 3 5 6 6 7 7 7 6 5 5 7 10 13 14 13 12 11 11 11 12 13 15 16 15 14 14 13 13 13 14 14 14 14 18 19 13 8 7 9 12 14 15 16 18 18 19 18 17 16 14 13 12 11 12 12 12
31 30 30 30 30 30 31 32 32 31 29 28 27 25 22 21 20 18 17 16 15 15 15 15 13 9 6 3 0 3 7 8 8 8 8 8 7 7 9 11 13 14 13 11 10 9 8 8 9 10 12 14 14 13 13 12 11 11 11 10 11 13 18 20 17 13 11 11 12 14 15 16 19 21 22 23 21 20 18 16 14 13 12 12 12
30 30 30 31 31 31 32 32 32 31 30 29 28 26 24 23 21 18 17 17 15 14 15 16 14 11 9 6 3 4 8 10 10 10 11 11 12 13 14 14 12 10 9 8 7 7 7 6 6 6 7 10 12 12 11 11 11 11 9 8 9 11 15 18 17 15 13 12 13 13 13 15 18 19 20 21 22 23 21 19 17 15 13 12 11
28 30 30 31 31 32 32 32 32 31 31 29 28 27 26 24 22 20 19 19 17 15 16 17 16 14 11 9 7 6 8 9 10 11 11 12 13 14 13 11 9 6 5 6 6 7 7 6 5 4 5 7 9 10 10 10 11 11 10 10 10 11 15 18 17 15 13 13 13 12 11 11 13 15 14 14 16 19 20 21 19 17 15 13 11
27 29 30 31 32 32 31 31 31 31 31 30 29 28 27 26 24 23 22 22 20 19 20 21 19 17 14 12 11 10 9 9 10 9 9 10 10 9 8 6 5 5 4 4 5 6 7 8 7 6 6 7 8 8 9 10 10 10 11 12 12 14 17 18 17 15 14 12 11 11 10 7 9 9 8 8 10 12 15 17 17 16 16 14 12
27 29 30 32 32 31 30 30 30 31 31 30 30 29 28 27 27 25 24 25 23 22 22 22 20 18 16 15 14 14 12 11 10 9 8 8 7 6 6 5 5 4 3 4 4 7 9 10 9 9 9 9 10 9 9 10 10 10 11 13 14 16 19 19 17 15 14 12 10 10 10 8 7 7 6 5 7 9 11 13 15 16 16 16 16
24 27 29 31 31 30 30 31 31 31 31 30 29 29 28 28 28 27 27 27 26 24 22 21 20 19 18 18 18 17 16 14 12 10 8 8 7 6 5 5 5 3 2 3 7 10 11 11 11 11 12 11 11 11 10 10 11 12 12 13 15 17 19 20 17 14 13 12 10 8 7 8 8 7 6 6 7 8 9 11 14 16 16 18 20
20 26 28 29 30 31 32 32 31 31 31 31 30 30 29 30 29 29 29 29 28 27 25 22 22 22 21 20 20 19 18 18 16 13 10 8 8 7 6 6 4 3 5 9 12 12 11 11 13 13 13 12 11 11 10 10 11 13 13 13 15 17 18 20 19 15 12 11 10 8 7 8 8 8 8 8 8 8 8 10 12 14 16 19 20
17 21 24 26 28 30 30 30 31 31 31 31 30 30 31 31 30 30 29 28 28 27 25 23 23 23 22 21 21 21 21 20 17 14 12 9 7 6 6 6 4 5 10 13 13 11 10 11 12 13 13 13 12 11 11 10 11 13 13 14 15 17 18 20 20 17 13 12 11 11 10 9 10 9 9 10 10 9 9 10 12 14 16 19 18
17 17 18 21 25 27 27 27 28 30 30 30 30 29 28 29 29 29 28 27 26 25 22 20 21 22 21 21 22 23 22 18 14 13 13 11 9 7 7 7 6 9 13 14 12 11 12 12 12 12 12 12 12 11 10 9 9 12 13 14 15 17 18 19 19 18 16 14 13 13 12 12 12 11 11 11 11 10 10 11 12 14 16 17 16
17 16 17 20 24 27 28 28 28 29 29 31 31 29 26 25 26 28 27 26 26 24 21 19 18 20 21 21 22 24 22 17 13 13 13 11 10 10 10 9 9 13 15 13 12 12 13 13 13 12 12 12 12 11 9 8 9 10 12 14 15 16 17 18 18 19 18 16 14 14 13 13 14 14 13 12 12 11 12 12 13 15 16 16 15
19 18 17 20 24 27 29 29 29 28 27 27 29 28 26 24 23 23 25 26 25 23 21 20 21 22 22 21 22 24 24 19 15 14 13 13 13 13 12 10 12 14 14 12 12 13 13 13 13 12 12 12 11 10 8 8 8 9 11 13 14 15 16 17 17 18 20 18 15 14 14 13 14 15 13 12 12 13 13 14 15 16 16 16 15
23 20 19 18 19 24 28 27 27 28 28 28 30 31 31 29 26 23 22 23 24 23 22 22 24 26 24 21 23 26 25 20 17 16 14 15 16 15 11 10 12 14 13 12 14 14 13 13 13 12 12 12 11 9 8 8 8 8 10 12 13 14 15 16 17 18 20 19 16 14 14 13 14 14 12 11 11 12 13 14 15 15 15 15 15
25 22 19 18 16 19 25 28 29 30 30 32 33 33 32 31 29 27 24 21 21 23 24 24 25 25 23 23 25 28 25 20 19 18 17 17 17 15 12 12 14 14 13 12 14 15 14 14 14 13 12 12 10 9 8 8 8 8 9 10 11 12 13 14 17 19 19 19 17 15 13 14 13 12 10 10 10 10 11 12 13 14 14 14 14
24 22 20 19 17 16 20 26 29 30 30 31 32 33 32 30 30 30 30 27 25 25 26 26 25 24 23 25 28 28 24 21 21 20 19 20 19 15 14 15 16 15 14 13 14 14 14 14 14 13 13 12 11 10 8 8 7 7 7 8 9 10 11 14 17 18 19 19 18 16 15 15 13 11 10 10 10 12 12 12 12 13 14 14 14
22 22 22 22 21 19 19 23 27 29 31 32 33 33 33 32 31 32 31 29 28 28 27 25 24 23 24 26 28 27 24 23 23 22 21 22 20 18 17 18 17 17 16 15 14 14 14 14 14 14 13 13 12 11 9 8 7 7 6 7 7 8 10 12 15 17 18 18 17 16 16 16 13 11 11 12 12 12 12 13 13 13 14 14 15
23 22 21 22 23 22 19 20 24 28 30 31 31 30 30 31 32 32 30 29 29 29 29 28 26 24 25 26 28 27 26 25 24 24 24 23 22 19 17 17 17 18 17 16 15 15 14 14 14 14 13 13 13 12 9 8 7 6 6 6 6 7 8 10 12 14 16 17 16 15 16 16 14 12 13 14 14 13 12 13 14 13 13 14 15
23 21 20 21 23 24 21 18 20 24 27 28 28 28 28 27 28 29 28 29 30 30 30 31 30 29 28 29 29 29 28 27 26 26 25 25 24 20 16 16 18 18 17 17 16 15 14 14 14 14 13 13 13 12 10 8 7 6 6 7 7 7 8 9 11 13 14 16 16 15 15 15 14 13 13 14 13 13 13 13 13 13 14 14 15
23 22 21 21 22 22 21 19 18 19 22 24 26 27 26 25 27 28 28 28 29 30 30 31 31 31 32 33 31 30 29 28 29 28 26 26 25 20 15 16 20 20 18 18 17 15 15 14 13 14 14 13 13 12 10 8 7 8 8 8 8 8 8 9 11 13 14 15 15 15 16 15 14 13 13 13 12 12 12 12 13 15 15 16 16
22 22 22 22 21 21 21 20 18 17 20 24 26 28 28 29 31 31 30 28 28 29 30 31 32 33 35 35 35 34 33 31 32 31 30 28 26 21 17 19 23 22 20 19 17 16 15 15 14 14 14 13 12 11 10 8 9 9 10 10 10 10 10 11 12 13 14 15 15 16 16 16 15 14 15 15 13 12 13 13 14 15 16 16 17
24 23 22 21 21 21 21 20 19 18 19 23 27 29 30 32 32 31 30 30 29 29 30 32 33 35 37 36 36 37 36 35 35 35 34 32 28 22 19 22 24 23 21 19 18 17 16 15 15 15 15 14 12 12 10 9 9 10 11 11 11 12 12 13 13 14 15 16 16 15 16 17 17 16 16 16 15 14 14 15 15 16 17 17 17
26 25 23 22 21 21 20 18 19 19 19 21 25 29 31 32 31 31 32 33 31 30 30 30 32 35 37 37 37 37 36 35 36 36 35 32 28 23 22 25 26 23 21 20 19 18 18 17 16 15 15 14 13 12 11 10 10 11 11 12 11 12 13 13 14 15 16 16 16 15 15 17 18 18 17 16 16 15 15 15 15 16 16 16 17
27 26 24 22 21 20 19 19 20 20 20 20 23 28 31 31 31 31 32 32 31 30 30 30 30 33 36 37 37 36 34 33 34 36 35 32 28 25 25 27 26 24 22 21 19 18 18 18 16 16 15 13 12 11 10 10 11 12 13 12 12 12 12 13 14 14 15 17 17 16 15 17 18 18 17 15 15 15 15 14 14 15 15 16 17
27 26 23 21 20 20 21 21 21 20 21 22 23 27 31 32 31 30 30 32 33 32 31 31 32 33 35 36 38 37 33 31 33 35 35 32 29 27 27 28 27 25 23 22 21 19 18 18 17 16 15 13 12 11 10 9 10 13 13 12 12 12 12 13 13 13 14 16 17 17 16 16 17 16 15 14 13 14 14 13 14 14 15 16 17
24 23 22 21 21 22 22 23 22 21 21 22 23 25 29 31 32 30 30 33 35 33 31 31 33 34 35 36 39 39 35 32 32 34 35 33 30 28 29 29 29 27 25 24 22 20 18 18 18 17 17 15 13 12 11 10 11 12 12 11 11 11 11 12 12 12 13 14 15 16 17 16 15 15 14 13 13 13 14 13 14 14 15 16 18
23 23 24 24 23 23 24 24 24 23 21 21 20 22 27 31 32 32 33 35 35 33 30 31 33 34 34 36 39 40 37 35 33 33 34 33 30 29 30 31 30 28 26 24 22 20 18 18 18 18 17 16 15 14 12 12 12 13 12 11 10 10 10 11 12 12 12 13 15 16 16 16 15 14 14 14 15 14 14 14 14 14 15 17 18
25 25 26 26 25 25 25 25 24 23 22 20 20 20 25 30 32 33 33 34 34 32 30 31 33 34 33 35 38 40 39 37 34 33 34 32 29 29 32 33 32 29 26 24 22 19 18 18 18 18 17 16 15 15 14 13 12 13 12 11 10 10 10 10 11 12 12 13 14 15 16 16 15 15 15 16 17 16 16 16 15 14 15 16 18
25 25 26 26 25 25 25 24 24 23 23 22 21 21 23 28 32 33 33 33 34 33 31 31 32 33 33 35 37 39 39 38 35 33 32 31 29 31 35 35 32 29 27 24 22 20 19 19 19 18 16 15 15 14 14 14 13 13 13 12 11 10 10 10 11 12 12 12 14 15 15 15 15 14 15 16 17 17 17 17 16 15 15 16 17
27 26 26 26 26 26 25 24 24 24 24 24 22 22 22 26 31 33 33 34 35 35 33 32 33 35 34 34 35 37 37 37 34 32 31 30 31 35 37 36 32 30 28 25 23 21 20 20 19 18 15 14 13 14 15 15 14 14 14 13 12 10 10 10 11 11 12 12 13 14 15 15 14 14 15 16 18 18 18 17 16 16 16 16 17
28 28 27 27 27 27 27 26 25 25 25 25 23 22 22 24 30 33 33 33 35 36 34 34 35 36 35 34 35 35 36 35 34 32 31 32 35 38 38 36 33 31 28 25 24 23 22 20 20 18 14 13 13 14 15 15 15 15 15 14 12 10 10 10 11 12 12 12 13 14 15 15 15 16 16 17 18 18 18 17 17 16 16 17 18
29 29 28 28 28 28 27 26 26 25 26 26 25 24 23 24 28 32 34 34 36 37 35 35 36 37 36 36 36 37 36 35 34 33 33 35 38 39 39 36 34 31 29 26 26 24 23 22 20 18 14 13 15 16 17 16 16 16 15 13 12 11 10 10 11 12 13 13 13 14 15 16 17 17 17 17 17 18 18 18 18 17 17 18 19
Wind_Direction
197 197 196 192 185 186 193 194 195 197 189 205 260 206 168 89 16 5 11 17 11 7 17 46 50 30 23 18 17 24 31 44 52 50 52 50 46 44 39 47 70 68 46 43 40 36 34 32 29 25 25 27 26 24 26 28 30 32 32 31 30 30 34 40 37 16 31 38 42 52 78 89 76 74 72 69 65 63 64 65 66 67 67 68 68
195 197 196 193 200 204 204 207 202 196 188 173 169 165 155 109 3 351 11 12 359 1 18 44 39 21 17 17 23 32 40 48 52 53 56 53 49 46 40 44 61 68 53 47 44 38 32 30 29 25 24 26 27 26 26 28 29 31 32 32 32 34 38 41 35 18 25 35 38 42 58 83 93 84 80 77 72 68 68 68 69 68 67 68 68
198 199 197 196 203 207 207 214 213 205 196 176 170 174 176 165 26 43 32 5 360 5 11 24 25 16 16 20 26 32 40 50 52 53 57 54 49 47 45 46 54 66 61 52 47 41 34 30 29 25 22 23 27 27 27 29 30 31 32 35 37 39 43 46 40 27 19 31 34 32 36 55 85 99 94 88 82 77 73 72 72 71 69 70 69
198 197 197 202 209 207 206 212 212 211 208 198 189 176 177 186 142 135 344 3 46 60 5 4 17 15 18 22 25 28 37 47 52 54 56 55 52 52 52 52 54 66 69 57 49 42 34 30 28 26 22 20 23 26 27 29 31 32 33 36 40 42 46 51 52 48 40 31 32 33 32 37 54 89 105 97 88 84 80 76 74 72 69 68 69
199 199 203 210 214 207 206 211 212 211 209 202 192 181 184 196 193 202 285 29 96 49 13 114 17 20 24 26 28 27 31 43 52 54 54 57 59 57 55 52 53 61 69 59 47 40 34 27 24 24 24 21 20 24 27 28 31 34 36 38 40 43 45 49 52 52 47 33 21 28 39 41 40 53 90 107 99 88 83 79 76 74 70 67 67
202 204 209 214 212 205 206 213 213 213 212 204 195 194 204 209 201 206 210 118 125 343 135 150 36 34 33 30 31 29 29 43 54 56 55 58 61 58 51 47 44 48 57 57 46 36 30 25 21 21 24 23 20 24 28 28 31 34 37 40 43 45 46 46 47 48 45 37 24 23 32 36 35 36 52 105 119 103 91 85 79 75 70 66 65
204 205 209 213 209 205 209 215 216 217 217 208 199 202 210 201 190 199 210 182 153 353 156 151 76 48 38 30 31 28 28 44 58 61 59 57 61 57 45 37 34 37 46 54 52 39 26 21 20 19 23 25 23 27 32 31 32 35 37 41 45 46 45 42 42 42 39 34 29 23 23 28 31 28 32 76 119 120 107 96 82 73 67 64 64
203 205 208 211 209 209 212 216 218 219 217 209 204 208 213 208 199 204 215 212 204 207 172 160 113 58 38 29 27 25 27 42 57 62 60 57 60 56 43 36 35 38 41 44 43 36 24 18 18 19 26 32 34 39 38 33 33 36 38 43 46 45 43 39 37 37 37 35 31 23 19 23 26 23 30 48 70 103 110 100 88 79 72 69 70
203 204 208 211 213 212 212 215 218 219 218 214 212 212 208 206 207 207 206 203 200 193 177 170 132 59 36 26 23 22 25 34 46 54 57 56 56 55 46 39 38 38 37 36 33 27 23 20 20 22 33 45 51 56 52 42 34 33 35 41 45 47 45 41 37 35 35 35 30 23 19 16 14 13 18 25 31 84 114 106 97 92 84 76 70
202 205 209 214 216 213 212 214 216 218 219 215 215 216 211 204 202 200 193 190 194 201 197 180 151 48 22 21 19 19 24 30 36 45 53 51 48 49 47 41 41 39 35 34 31 28 27 24 23 27 40 52 58 62 68 64 47 38 36 38 43 47 48 45 42 39 39 35 26 19 17 9 4 6 7 11 28 101 122 113 106 102 95 84 73
203 207 212 215 216 214 214 213 214 218 217 213 214 217 213 206 205 203 197 192 191 198 205 200 193 304 355 9 12 16 23 30 39 51 57 45 35 35 43 44 46 46 39 35 32 30 29 26 26 31 41 50 51 56 71 75 61 51 46 41 41 42 45 48 45 45 46 41 30 23 19 6 360 5 10 13 29 102 125 118 114 110 100 92 81
206 210 213 215 215 214 215 215 216 221 219 214 215 215 210 208 208 208 207 200 192 193 202 209 207 232 321 352 6 13 16 24 44 65 64 39 20 18 54 92 60 54 46 38 33 31 30 29 30 32 37 44 43 46 64 75 67 55 46 43 43 40 41 46 45 47 50 47 38 28 21 11 4 9 10 12 33 106 126 119 117 114 103 96 93
209 212 213 215 215 214 216 218 221 225 222 219 219 216 211 211 211 210 208 201 196 196 200 206 206 218 279 337 359 5 10 22 45 75 56 21 5 11 127 140 90 64 52 40 33 31 30 30 32 34 38 43 43 45 58 67 65 54 44 46 48 44 45 47 43 45 48 50 48 36 26 18 12 13 13 16 56 110 123 117 113 112 105 101 100
211 213 214 215 216 216 217 219 223 227 225 224 225 220 214 213 212 210 207 202 200 198 199 204 204 212 246 316 350 358 7 20 33 57 45 12 10 69 141 148 113 74 56 41 33 31 33 34 35 37 41 44 44 46 53 58 54 46 46 51 49 46 54 64 53 45 42 44 47 41 35 30 22 24 37 58 91 117 124 119 114 110 107 110 111
212 214 215 216 216 217 218 218 223 227 224 224 226 223 220 217 212 211 211 208 205 201 201 206 205 206 231 289 334 351 5 21 35 65 63 32 50 98 133 146 120 84 59 41 32 34 40 41 42 45 47 48 46 45 49 52 50 47 49 54 52 51 62 82 79 56 40 35 36 35 33 32 32 36 53 91 111 122 126 122 119 112 107 108 110
213 214 216 217 218 218 216 216 221 226 224 223 223 223 224 221 214 213 215 213 209 202 200 205 208 209 227 275 316 343 4 23 41 77 90 63 71 99 122 138 124 90 59 38 33 41 47 48 51 53 52 50 47 46 50 52 51 52 52 54 58 62 69 82 87 70 43 28 24 26 28 34 41 43 59 103 115 123 126 122 119 114 104 97 95
215 216 217 219 220 218 215 214 218 224 225 223 220 221 224 222 218 216 214 212 209 202 199 203 209 218 243 271 302 341 8 29 48 79 106 90 82 103 120 134 126 92 53 35 40 54 57 55 57 57 53 48 44 44 50 54 55 56 53 56 63 66 69 83 89 76 54 37 30 31 36 46 56 57 76 113 122 129 128 118 114 112 105 98 92
218 219 221 222 222 220 215 213 216 221 223 220 217 220 222 220 221 222 217 213 210 205 206 206 206 221 253 274 307 345 13 52 68 75 93 105 117 119 123 132 126 90 46 41 59 71 69 64 62 58 51 46 44 46 50 54 55 55 54 59 63 60 62 80 91 84 70 54 46 47 50 58 68 70 80 104 120 128 123 114 113 112 104 102 106
222 223 226 226 224 221 217 215 217 220 220 216 216 221 222 221 223 223 218 218 217 213 214 211 206 214 234 299 10 15 52 85 84 86 96 106 122 129 124 121 114 89 59 65 80 83 77 70 65 59 51 46 48 52 52 51 53 52 55 63 63 56 58 74 95 95 79 58 48 51 54 63 75 76 78 88 97 103 109 112 118 116 108 110 120
228 228 229 228 225 222 219 216 218 220 220 217 217 220 222 221 220 216 217 225 226 221 220 216 211 211 207 108 28 52 96 98 95 103 109 113 120 124 117 103 95 91 86 86 89 86 77 70 65 58 52 50 53 57 54 51 51 51 56 62 60 59 65 77 97 116 91 63 53 54 58 67 76 77 76 79 81 83 94 106 116 122 119 114 118
231 230 230 228 226 224 221 219 219 221 221 219 217 217 217 218 215 209 213 223 225 222 221 216 214 214 206 194 38 83 109 107 105 112 118 124 127 122 107 98 99 102 98 92 89 83 71 64 61 56 52 52 56 58 55 53 53 55 56 58 61 66 69 75 89 107 105 82 64 60 63 71 76 77 75 75 76 77 83 90 99 113 116 109 107
233 232 229 228 227 226 224 221 220 221 221 218 214 212 213 213 211 207 208 213 220 226 223 214 212 212 205 204 97 102 117 111 107 111 115 121 126 121 115 112 111 107 100 91 83 73 59 51 51 52 53 53 55 57 55 51 53 59 59 58 66 72 70 73 83 96 99 86 68 63 68 74 77 78 76 75 76 77 79 81 85 92 100 103 105
237 233 230 228 227 226 225 223 220 219 218 215 212 210 208 208 207 206 205 205 213 226 224 212 209 209 204 207 206 138 126 117 109 108 109 113 119 122 120 117 114 105 93 84 72 56 44 37 40 51 57 55 56 58 57 51 51 58 61 62 69 73 71 73 83 93 96 85 69 67 77 84 84 82 77 75 76 75 75 76 77 83 89 93 98
239 233 230 230 228 226 225 223 220 217 215 213 211 208 206 206 205 205 206 204 208 218 215 205 205 209 208 210 208 177 147 131 122 115 113 117 122 125 124 120 116 109 91 76 60 40 34 39 51 69 77 70 66 62 59 58 57 57 61 68 75 76 72 73 81 91 94 86 72 67 78 97 100 93 84 81 80 77 74 75 76 81 85 87 91
237 233 231 230 229 227 224 221 218 216 214 212 208 205 203 202 200 201 205 204 207 212 208 201 205 211 212 215 214 199 179 160 145 136 130 129 130 132 134 131 129 127 101 65 46 44 57 71 79 89 101 96 80 65 59 64 64 60 62 69 75 76 71 72 80 87 88 87 79 67 68 91 110 106 99 96 90 81 77 78 81 84 86 89 92
239 234 233 231 229 226 221 217 215 214 214 212 209 206 203 200 197 197 201 204 207 210 205 202 208 212 214 221 224 213 200 188 174 164 161 159 156 155 157 155 151 138 91 50 62 84 91 92 90 95 107 103 86 71 67 70 70 67 70 72 74 73 68 68 75 84 89 95 93 77 69 80 101 115 120 114 98 87 85 87 87 85 86 89 87
247 238 234 231 227 223 219 215 212 210 210 209 206 205 204 202 198 197 199 201 203 205 205 208 214 215 214 223 231 223 212 207 200 193 193 188 182 182 177 163 156 138 74 90 116 114 104 97 98 106 113 107 89 76 73 74 71 70 74 77 76 73 69 68 74 86 97 105 104 91 80 86 100 113 120 116 104 97 96 95 89 84 83 85 81
267 249 239 231 225 221 219 215 209 207 208 206 203 202 202 202 202 202 204 204 203 204 206 211 219 220 216 221 230 228 221 219 215 211 214 206 192 191 186 170 159 133 118 127 127 120 112 107 106 109 114 111 97 81 74 74 70 69 73 80 80 77 74 74 78 86 100 112 112 105 97 94 96 100 103 103 102 102 103 99 92 87 85 84 79
295 267 248 235 226 222 218 213 209 207 206 204 203 204 205 206 209 211 213 214 215 216 214 214 220 224 221 223 228 227 225 225 222 218 218 211 198 193 182 169 155 129 131 137 133 123 119 115 107 105 107 107 100 86 76 73 70 67 71 77 79 78 76 74 73 79 97 116 116 108 102 96 92 92 94 94 96 102 106 103 98 95 91 87 80
314 288 259 239 231 224 218 213 210 208 205 202 201 203 206 210 215 216 217 220 222 224 224 223 223 224 224 227 232 233 232 229 221 215 214 209 202 193 176 161 146 136 138 141 135 124 119 114 108 105 104 103 101 93 82 75 70 68 69 73 77 76 75 73 72 76 90 108 116 110 103 98 96 94 92 91 93 98 103 105 104 101 95 89 82
324 304 275 250 238 229 222 217 212 209 207 203 200 198 199 204 210 215 217 218 219 221 224 225 222 222 227 231 234 235 235 229 216 210 208 203 195 184 169 154 142 142 146 144 134 127 124 120 114 109 106 106 105 99 91 83 76 71 70 73 76 76 75 75 75 79 85 97 112 116 109 103 101 97 94 95 98 98 97 100 103 101 95 89 83
336 325 304 275 253 237 227 221 214 209 205 201 199 197 193 192 197 205 211 213 216 219 223 221 219 224 232 238 238 232 224 216 210 207 198 186 180 174 165 154 145 147 151 146 135 133 133 129 123 117 114 113 111 104 99 93 85 79 76 77 77 76 75 76 78 82 85 91 106 121 121 112 103 96 93 96 98 96 94 93 94 95 94 89 83
335 333 329 310 276 247 231 223 216 209 204 200 199 199 196 192 189 191 197 204 210 215 220 222 220 221 227 237 240 231 218 207 203 200 186 175 174 171 167 160 153 153 155 147 140 141 141 137 131 126 123 120 116 111 108 103 96 88 83 82 82 80 80 83 86 85 85 89 102 121 131 127 114 101 95 96 97 96 95 93 92 92 90 86 81
332 329 332 329 305 265 240 228 220 214 209 205 203 202 200 197 192 186 183 187 195 205 214 219 219 219 225 231 228 219 211 202 198 192 180 173 172 171 167 161 156 157 158 151 146 147 146 143 139 135 131 129 125 121 117 114 111 104 94 91 91 89 89 91 90 85 84 90 99 111 127 138 133 120 112 109 105 103 100 97 97 95 90 86 83
339 335 331 330 320 290 256 237 226 218 213 209 207 204 202 200 196 191 188 186 187 192 201 209 214 218 223 221 212 205 202 197 192 186 178 172 169 165 161 157 155 156 157 154 152 151 149 147 145 142 140 138 133 128 126 123 119 116 110 103 101 99 94 92 90 85 84 89 97 105 117 130 135 134 132 125 114 109 106 103 101 99 96 94 91
346 345 341 338 330 312 279 250 232 223 218 216 213 209 204 200 198 197 195 191 188 187 190 197 203 205 206 203 198 196 194 190 186 181 176 171 169 165 160 158 157 157 157 154 153 153 151 150 148 146 146 145 139 133 133 130 123 121 121 117 112 109 101 93 90 88 85 89 99 109 114 117 121 126 130 126 118 115 114 112 107 103 103 103 99
346 347 350 349 344 333 307 269 243 230 224 221 216 211 205 201 199 196 193 191 189 185 183 184 185 185 187 188 188 187 186 182 180 178 176 174 172 169 165 164 163 161 159 158 157 155 152 152 152 151 150 148 144 140 138 135 131 129 132 132 126 119 110 101 95 91 88 90 101 112 115 112 111 114 118 119 119 121 121 118 113 107 106 108 106
344 345 347 345 344 343 331 299 263 240 227 221 217 212 207 201 197 195 192 190 188 184 180 179 178 178 180 181 182 182 180 177 175 177 179 178 177 174 172 174 172 167 163 163 162 158 154 153 154 155 155 152 149 146 143 139 137 133 133 138 139 134 126 115 104 96 93 95 103 115 120 117 112 110 110 113 119 125 127 125 121 114 108 107 106
335 334 334 333 334 339 339 325 296 260 234 221 215 212 207 199 195 196 195 192 189 186 182 180 180 181 181 180 180 180 179 175 176 179 181 181 181 179 178 177 175 170 166 165 164 161 158 157 156 157 158 156 153 150 146 143 140 132 125 128 135 139 138 129 113 103 99 100 107 119 125 121 116 110 106 107 116 126 131 130 126 118 110 106 105
324 321 321 322 324 328 332 330 316 284 247 225 214 211 208 203 200 199 196 192 191 189 185 184 185 185 184 183 183 183 181 179 179 180 182 183 184 185 182 177 174 171 168 167 166 164 162 160 159 159 160 160 157 153 148 146 144 137 124 117 120 127 132 128 118 110 106 106 111 121 126 126 122 117 110 107 110 117 124 127 124 117 112 110 111
317 314 311 311 314 317 318 319 317 300 266 235 218 212 212 210 205 200 196 195 194 193 190 190 190 189 189 191 191 189 186 184 183 182 183 184 186 187 185 181 177 174 171 170 168 166 165 165 164 162 162 162 161 157 152 150 150 144 131 119 116 121 126 124 119 115 113 111 112 118 127 132 131 124 117 112 110 111 115 120 120 118 115 116 117
311 308 304 303 307 309 308 307 309 305 284 250 224 215 216 216 209 203 200 199 197 195 194 193 193 192 192 195 196 193 191 189 187 186 186 186 185 184 183 182 179 177 175 174 171 169 169 169 168 167 166 165 165 163 159 156 157 152 140 128 124 127 128 124 120 118 117 114 111 115 127 136 135 128 121 117 114 112 114 119 122 122 120 119 120
307 303 300 299 301 303 302 300 300 297 286 263 236 222 220 219 213 208 204 200 198 197 196 194 193 192 193 195 196 195 193 193 190 188 188 187 184 180 179 179 179 179 179 177 174 174 175 173 170 170 169 168 169 170 166 161 161 158 149 138 133 134 134 129 124 122 121 118 114 115 124 137 139 133 126 122 118 115 117 122 125 125 122 121 121
304 300 296 294 296 296 295 294 292 288 284 275 254 232 222 219 216 212 205 201 200 200 198 194 192 191 191 192 193 194 195 196 194 191 190 188 183 179 178 179 179 179 178 177 176 177 178 175 172 170 168 166 169 170 165 160 162 162 156 147 141 141 142 138 132 127 126 124 121 118 123 133 141 140 136 132 127 121 120 125 128 127 127 126 123
303 300 297 295 294 292 289 287 284 281 281 278 262 237 221 217 216 212 205 201 202 201 198 194 192 191 190 190 191 192 196 198 196 193 192 189 183 179 179 180 180 179 178 177 177 179 180 180 177 173 169 168 170 169 163 158 160 162 159 152 145 143 145 146 141 134 132 131 129 126 126 130 138 142 143 143 139 129 123 125 127 128 130 131 127
303 300 297 295 291 287 284 282 279 276 275 275 263 238 220 215 215 212 206 202 201 200 197 193 191 191 191 190 190 191 194 196 195 195 194 191 186 182 180 179 179 179 179 178 178 179 182 183 182 177 172 170 171 171 167 163 163 165 162 155 146 140 141 146 146 143 140 139 136 134 132 132 135 139 141 144 144 136 125 122 124 126 131 133 130
299 295 292 289 287 283 279 276 272 269 268 270 266 246 223 213 213 212 208 203 200 198 195 191 190 192 192 191 190 191 192 193 194 194 193 192 188 183 179 177 178 178 178 178 178 179 182 184 183 178 173 173 174 176 174 172 172 172 169 160 151 141 137 143 149 150 147 145 142 140 137 135 135 138 142 144 144 139 129 123 121 123 128 133 133
295 290 286 283 280 277 274 270 266 263 261 263 265 256 236 218 211 210 207 202 197 196 193 189 189 192 193 192 190 190 190 190 191 191 191 190 187 181 177 176 177 177 176 176 176 177 179 181 178 172 168 170 176 180 180 177 177 177 172 164 157 147 139 141 150 153 151 150 148 146 142 138 136 139 143 145 145 142 135 127 123 124 127 132 135
292 288 283 278 274 271 269 265 261 259 257 255 255 256 245 225 212 208 205 200 196 195 193 190 189 192 193 190 189 189 188 186 186 186 187 186 183 179 176 176 177 177 175 174 174 174 176 175 171 165 162 165 171 175 174 171 170 171 168 162 160 156 148 144 149 155 156 154 152 151 149 145 140 139 142 145 146 146 140 132 127 126 128 132 136
290 285 280 275 271 267 264 261 257 254 253 249 248 250 246 229 213 206 201 196 193 193 193 191 190 191 190 187 186 186 185 183 182 183 183 181 178 176 175 175 176 176 175 174 173 174 175 174 170 165 163 165 167 167 166 163 161 162 163 161 160 162 159 151 150 156 158 156 153 152 152 150 145 141 141 144 146 147 144 139 134 130 130 133 137
289 285 280 274 270 265 260 256 252 247 245 244 243 244 242 230 214 204 198 194 192 191 191 190 189 189 188 186 185 184 181 179 179 180 178 177 175 174 174 175 175 174 174 174 174 174 176 176 173 169 167 167 166 164 163 161 158 159 161 161 163 169 169 160 154 157 161 160 154 151 151 150 146 142 141 143 145 146 146 144 140 134 132 133 137
Height
798 798 799 799 800 800 801 801 801 802 802 802 802 802 802 802 802 802 802 801 801 800 798 797 796 795 794 793 791 790 789 788 786 785 784 783 782 781 779 777 776 776 775 774 772 771 769 767 765 764 762 760 757 754 751 749 747 745 743 742 740 740 739 738 738 737 735 734 733 731 731 730 729 727 725 723 722 720 718 716 714 712 711 711 710
797 797 798 798 799 799 800 800 800 801 801 801 801 801 801 802 801 802 801 801 801 800 798 798 797 796 794 793 792 791 789 788 787 786 785 784 783 781 780 778 777 776 776 775 773 772 770 768 766 765 763 761 759 756 753 751 748 747 745 743 742 741 740 740 739 738 737 735 734 733 732 731 730 730 728 727 725 724 722 720 718 716 716 715 714
795 796 797 797 798 798 799 800 800 800 800 800 800 800 801 801 801 801 801 801 800 799 798 798 797 796 795 793 792 791 790 789 788 786 785 784 783 782 781 779 778 777 777 776 774 773 771 769 768 766 764 762 760 758 755 753 750 749 747 745 744 743 742 741 740 739 738 737 735 734 733 732 732 731 730 730 729 727 725 724 722 721 721 719 718
794 794 795 796 797 797 798 799 799 800 800 800 800 800 800 800 800 800 800 800 800 799 798 797 797 796 795 794 792 791 790 789 788 787 786 785 784 783 782 780 779 778 778 777 776 774 772 771 769 767 765 763 761 759 757 755 752 750 749 748 746 745 744 742 741 740 739 738 737 736 735 734 733 732 732 731 731 730 728 727 726 725 725 724 723
792 793 794 795 795 796 797 797 798 798 799 799 799 799 799 799 799 800 799 799 799 798 797 797 796 795 794 793 792 791 790 789 788 787 786 785 784 783 783 782 781 780 779 778 776 775 773 772 771 768 766 764 763 761 759 757 755 753 751 750 748 747 745 744 743 741 740 739 739 737 736 735 734 733 733 733 732 732 731 730 729 729 728 728 727
790 791 793 793 794 795 795 796 797 797 798 798 798 799 798 798 798 798 799 798 798 797 797 796 796 795 794 793 792 791 790 789 788 787 787 786 785 784 783 783 782 781 780 779 777 776 774 773 772 770 768 766 764 762 761 759 757 755 753 752 751 749 747 746 745 743 742 741 740 739 737 736 735 734 733 733 733 733 733 732 732 731 731 730 729
788 789 791 791 792 793 794 795 796 797 797 797 798 798 798 798 798 798 798 798 797 796 796 796 796 795 794 793 792 791 790 789 788 787 787 786 785 785 784 783 783 782 780 779 778 777 775 774 772 771 769 767 765 764 762 760 759 757 756 755 753 752 750 748 747 745 744 743 742 740 739 738 737 736 735 734 734 734 734 734 734 734 733 733 732
786 788 789 790 791 792 793 795 795 796 796 796 797 797 797 797 797 797 797 797 797 796 796 796 795 795 794 793 792 791 790 789 788 787 787 786 786 785 785 784 783 782 781 780 779 777 776 774 773 771 770 768 766 765 764 762 760 759 758 757 756 754 752 750 748 747 745 744 743 742 741 740 738 737 735 734 734 735 736 735 735 736 736 735 735
785 787 788 789 790 791 793 794 794 795 795 795 796 796 796 796 796 797 797 797 796 796 796 795 795 795 794 793 792 791 790 789 788 787 787 787 786 786 785 785 784 783 781 780 779 778 776 775 773 772 770 769 767 766 764 763 762 761 760 759 757 756 754 752 750 749 747 746 745 744 743 741 740 738 736 735 736 737 737 737 737 737 738 738 737
783 785 786 788 789 791 791 792 792 793 794 794 795 795 795 795 795 796 796 796 796 796 795 795 795 794 794 793 792 791 790 789 788 787 787 787 786 786 785 785 784 783 782 781 779 778 776 775 773 772 771 769 768 766 765 764 763 762 761 760 759 758 756 754 752 751 749 748 747 746 744 743 742 741 739 738 738 738 738 738 738 739 740 740 740
782 783 785 787 789 790 790 791 791 792 792 793 794 794 795 795 795 795 795 795 795 795 795 795 794 794 794 793 792 791 790 789 788 788 787 787 786 786 785 785 784 784 782 781 780 778 777 775 774 772 771 769 768 767 766 765 764 764 763 762 761 759 758 756 755 753 751 750 749 748 746 745 744 742 741 740 740 740 740 740 740 740 741 741 742
780 782 783 786 787 788 790 790 791 792 792 793 793 793 794 794 794 795 794 794 794 794 794 794 794 794 793 792 792 791 790 789 788 788 787 787 786 785 785 785 785 784 783 781 780 779 777 776 774 773 772 770 769 768 767 766 765 764 764 763 762 761 759 758 757 755 753 752 750 749 748 747 745 744 742 741 741 741 741 742 742 742 742 743 744
779 781 782 784 785 787 789 790 791 792 792 793 793 792 793 793 793 794 794 794 794 793 793 793 793 793 793 792 792 791 790 789 788 788 787 787 786 785 785 785 785 784 784 782 781 780 778 777 775 774 773 771 770 769 768 767 766 765 764 764 763 762 760 759 758 757 755 753 752 750 749 748 747 745 743 741 741 742 743 744 744 744 744 745 745
778 779 781 783 784 785 787 789 791 793 793 793 793 793 793 792 793 794 794 794 794 793 793 792 792 792 792 792 791 791 790 789 788 788 788 787 786 785 784 785 785 785 784 783 781 780 779 777 776 775 774 772 771 770 769 768 767 766 765 764 763 762 760 760 759 758 757 755 753 752 751 750 748 746 744 743 742 743 744 745 746 746 746 747 748
776 778 779 781 782 784 786 789 790 791 790 791 792 792 793 792 793 793 793 793 794 793 793 792 792 792 791 791 791 790 790 789 788 788 787 787 786 785 784 784 785 785 784 783 782 781 780 779 777 776 775 773 772 771 770 769 768 767 766 765 764 762 761 760 760 759 758 757 755 754 752 751 749 747 746 745 745 745 745 746 747 747 748 749 750
774 776 777 778 779 781 784 787 788 788 787 789 791 792 793 793 793 793 793 793 793 793 793 792 792 791 791 791 790 790 789 788 788 787 787 787 786 785 784 784 785 785 784 783 782 781 780 780 778 777 776 775 774 772 771 770 768 767 766 765 764 763 761 761 761 760 760 758 757 755 754 752 750 748 748 747 747 747 747 748 749 748 749 750 751
772 773 774 775 776 778 781 784 785 785 786 788 790 792 793 793 794 793 793 793 793 793 792 792 791 791 790 790 790 789 789 788 787 787 787 787 786 785 785 784 784 785 784 784 783 782 781 781 779 778 777 776 775 773 772 770 769 768 767 766 765 764 763 762 762 761 761 760 758 757 755 753 752 750 749 749 749 749 748 749 750 750 749 751 753
770 770 771 772 774 776 778 780 781 782 783 786 788 790 791 792 793 792 793 793 793 793 792 792 791 791 790 790 789 789 789 788 787 787 787 786 786 785 785 784 784 785 784 784 783 782 782 781 780 779 779 777 776 774 773 771 770 769 768 767 766 765 765 764 763 763 762 761 760 758 756 755 753 752 751 751 751 751 750 750 751 751 751 752 754
767 767 768 769 771 774 776 777 778 779 781 783 785 787 788 790 791 791 793 794 794 794 793 792 791 791 790 790 789 789 789 788 787 787 786 786 786 785 785 785 784 785 784 784 783 783 783 782 781 780 780 779 777 776 774 773 771 770 769 768 767 767 766 765 764 764 764 763 761 760 758 756 755 754 753 753 753 753 752 752 753 752 752 754 754
763 765 766 767 769 771 772 774 775 776 778 780 782 784 786 788 790 791 793 794 794 794 794 793 792 791 791 790 789 789 788 788 787 787 787 786 786 786 786 785 785 784 784 784 784 784 784 783 782 781 781 780 778 777 775 774 773 772 771 770 769 769 768 767 766 765 765 765 763 762 760 759 758 756 756 755 755 755 754 754 754 754 754 754 755
762 763 764 765 767 768 769 771 772 773 775 778 780 782 783 785 787 789 791 793 793 793 794 794 793 793 791 791 790 789 789 788 788 787 787 787 787 786 786 786 785 785 785 784 784 784 784 784 783 782 781 781 780 778 777 775 774 773 773 772 771 770 769 768 767 766 766 766 765 764 763 761 760 759 758 758 757 757 756 755 755 755 755 755 756
761 761 762 763 764 765 766 768 769 771 773 775 777 779 780 782 785 786 788 790 791 792 793 793 793 793 792 792 791 790 789 789 788 788 787 787 787 787 786 786 786 786 786 785 785 785 785 784 783 783 782 781 781 779 778 777 776 775 774 773 773 771 770 769 768 768 768 767 766 766 765 764 763 762 761 761 760 760 759 758 757 757 757 757 757
759 759 760 761 761 762 763 764 766 768 770 772 774 776 777 780 783 784 786 788 789 791 792 793 793 793 792 792 792 791 790 789 789 788 788 788 787 787 787 787 787 787 786 786 785 785 785 784 784 783 783 782 782 781 779 778 777 776 775 774 773 772 771 770 769 769 769 768 768 767 767 767 766 765 764 764 763 762 761 761 760 759 759 759 758
757 757 757 758 758 759 760 762 763 765 767 769 771 773 775 777 780 782 784 785 787 789 790 791 792 792 792 792 792 791 791 790 789 789 789 789 788 788 788 788 787 787 787 786 786 785 785 784 783 783 783 783 782 782 780 779 778 777 776 775 774 773 772 771 771 770 769 769 769 769 769 769 768 768 767 767 766 765 764 764 763 762 761 761 760
755 755 755 755 755 756 757 759 761 763 764 766 768 770 773 775 777 780 781 782 784 786 786 787 788 789 790 790 791 791 791 790 789 789 789 789 789 788 788 788 787 787 787 786 786 785 784 784 783 783 783 783 783 782 781 780 779 778 777 776 774 774 773 772 771 771 770 771 771 770 770 770 770 770 770 769 768 768 767 766 765 764 763 762 762
753 752 752 752 752 754 755 756 758 760 761 763 765 767 769 772 774 776 778 779 781 783 784 784 785 786 788 789 790 790 790 789 789 789 789 789 789 788 788 788 787 787 787 787 786 785 785 784 783 783 783 783 784 783 782 781 780 779 778 777 775 774 774 773 772 772 772 772 772 772 772 771 771 771 771 771 770 769 769 768 767 766 765 764 763
751 750 749 749 750 751 751 753 754 756 758 760 762 765 767 768 771 772 774 776 778 780 781 782 783 784 785 787 789 789 789 789 789 788 788 788 788 788 788 787 787 787 787 787 786 786 785 785 784 784 784 784 784 784 783 782 781 780 779 778 777 776 775 774 774 773 773 774 774 773 773 773 772 772 772 771 771 771 771 770 769 768 767 766 765
750 749 748 747 747 747 748 749 751 753 755 757 759 761 763 765 766 767 769 771 773 775 777 779 780 781 782 784 787 787 787 787 787 787 787 787 787 787 787 787 787 787 787 787 786 786 786 785 785 785 784 785 785 785 784 783 782 781 780 779 778 777 776 775 775 775 775 775 775 775 774 774 773 773 773 772 772 772 772 772 770 770 769 767 767
749 748 747 747 746 746 746 747 748 750 752 754 756 757 759 760 762 763 765 768 769 771 774 775 776 778 779 781 784 785 785 785 785 785 786 787 787 787 787 787 787 787 787 787 787 786 786 786 786 785 785 785 785 785 785 784 783 782 781 780 779 778 777 776 776 776 776 776 776 776 776 775 775 774 774 774 774 774 774 773 772 772 771 770 770
748 747 746 746 746 746 746 747 747 748 749 751 753 755 756 758 759 761 763 765 767 769 771 772 773 775 776 778 780 782 782 783 783 784 785 785 786 786 786 787 786 786 786 787 787 787 787 786 786 786 786 786 786 786 786 785 784 783 782 781 780 779 778 777 777 778 777 777 777 777 777 777 777 776 776 775 775 775 775 774 774 774 773 773 773
747 746 745 744 744 744 744 744 745 746 747 748 749 751 753 755 757 758 760 762 764 766 768 769 771 772 773 775 777 779 780 781 782 783 783 784 785 785 786 786 786 786 786 787 787 787 787 787 787 786 786 786 786 787 787 786 785 785 783 782 781 780 779 779 779 779 778 778 778 779 779 779 779 778 777 777 777 777 777 776 775 775 775 776 776
746 745 744 743 742 741 741 742 742 744 746 747 748 749 750 752 754 756 758 760 762 764 765 767 768 770 771 773 775 777 778 779 780 781 782 783 784 785 785 786 785 786 786 787 787 787 787 787 787 787 787 787 787 787 787 787 786 786 784 783 782 781 780 780 780 780 779 779 779 779 780 780 781 780 780 780 779 779 779 778 777 777 777 778 778
745 744 743 741 740 740 740 740 740 741 742 743 745 746 746 747 749 752 755 757 759 761 763 765 766 767 769 770 772 774 776 777 778 779 780 781 783 784 785 785 785 785 786 786 787 788 788 788 788 787 787 787 787 788 788 787 787 786 785 784 784 783 782 782 781 780 780 780 780 780 781 782 782 782 782 782 781 781 780 780 779 779 779 780 780
744 742 741 740 739 738 738 738 738 738 738 739 740 741 741 742 744 747 751 754 756 758 760 762 763 765 766 767 768 771 773 775 776 778 779 780 782 783 784 784 785 785 786 786 787 787 788 788 788 788 787 787 787 788 788 788 787 787 786 786 785 784 784 782 781 781 781 781 781 781 781 782 783 783 783 783 783 782 782 781 781 781 781 782 782
742 741 740 738 737 736 735 735 735 735 736 736 736 737 739 741 742 744 745 747 750 752 755 758 760 761 763 764 766 768 770 772 774 776 777 779 780 782 783 784 784 785 785 786 786 787 788 788 788 788 788 788 788 788 788 788 788 787 787 787 786 785 785 783 782 782 782 782 782 783 783 783 784 784 785 784 784 784 784 783 784 783 783 783 784
741 740 738 737 736 734 733 732 732 733 733 733 733 734 736 738 739 740 741 743 746 748 751 754 757 758 760 762 764 766 768 769 772 774 776 777 779 780 782 783 783 784 785 785 786 787 788 788 788 788 788 788 788 788 788 788 788 788 788 788 787 786 786 784 784 783 783 783 784 784 784 784 785 785 785 786 786 786 786 785 785 785 785 785 785
741 739 737 736 735 733 732 731 730 730 730 731 732 733 734 735 736 737 739 741 743 745 747 750 753 756 758 760 763 764 766 768 770 772 774 776 777 779 781 782 782 783 784 785 786 787 788 788 788 788 788 788 788 788 788 788 788 788 788 788 788 787 787 786 785 784 784 784 785 785 785 786 786 786 786 786 787 787 787 787 787 787 787 787 787
740 739 737 736 734 733 732 730 729 729 729 730 730 731 732 734 735 736 738 739 740 742 744 746 748 751 754 757 760 762 764 766 768 770 772 774 775 777 779 780 781 782 783 784 785 786 787 788 788 788 788 788 788 788 788 789 788 788 788 788 788 788 787 787 786 785 785 785 785 786 786 787 787 788 787 787 788 788 789 789 789 789 789 789 789
740 738 737 735 734 733 731 730 729 728 728 729 729 729 730 732 734 735 736 738 738 740 741 743 745 748 750 753 757 760 761 763 765 768 770 772 774 776 778 779 780 781 783 784 785 786 787 787 788 788 788 788 788 788 789 789 789 788 788 788 788 788 788 788 786 786 786 786 786 787 787 787 788 789 789 789 789 789 790 790 790 790 790 790 791
738 737 735 733 732 731 730 729 728 727 726 726 727 727 727 728 729 730 732 735 736 738 739 741 743 744 747 750 752 755 757 759 761 764 767 770 772 774 776 777 778 780 781 783 784 785 786 787 787 788 788 789 789 789 789 789 789 789 788 788 788 789 789 788 787 787 786 787 787 788 788 788 789 790 790 790 791 791 791 791 792 792 792 792 792
736 734 733 731 730 729 728 727 726 725 724 724 724 724 724 724 725 727 729 731 733 735 736 738 739 741 744 746 749 751 754 756 758 760 763 766 768 771 774 775 777 778 780 781 782 784 785 786 787 787 788 788 789 789 789 789 789 789 789 789 789 789 789 789 788 788 787 787 788 788 789 789 790 791 792 792 792 792 793 793 793 793 793 794 794
733 731 730 728 728 726 725 724 723 722 721 721 721 721 721 721 722 723 725 726 729 731 733 735 737 739 741 744 747 750 753 755 756 758 760 763 765 768 771 773 775 776 778 780 781 782 784 785 786 787 788 788 789 789 789 789 790 789 789 789 790 790 790 790 789 789 788 788 788 789 789 790 791 792 793 793 794 794 794 794 795 795 795 795 795
730 728 726 725 724 723 722 721 720 719 718 717 717 717 718 718 719 720 721 723 725 728 730 733 735 737 739 742 746 749 752 754 755 757 759 761 763 766 768 772 774 775 777 778 780 781 783 785 786 786 787 788 789 789 789 789 790 790 789 789 790 791 791 791 791 790 789 789 789 790 790 791 792 793 794 795 795 795 795 796 796 797 797 797 797
726 724 723 721 720 720 719 718 717 716 715 713 713 713 714 715 715 717 718 720 721 724 727 729 732 734 737 739 742 746 750 753 754 756 758 760 762 764 766 770 772 774 776 777 779 780 782 784 785 786 787 788 789 789 789 790 790 790 790 789 790 791 792 792 792 791 790 790 790 791 791 792 793 794 795 796 796 796 797 797 798 798 798 799 799
722 720 719 718 717 716 715 714 713 712 711 710 709 709 709 710 711 712 714 716 717 720 723 726 728 731 733 735 738 742 747 750 753 754 756 758 760 762 764 767 770 773 775 776 778 780 781 783 784 785 786 787 789 789 790 790 790 791 790 790 790 791 792 792 792 792 792 791 791 791 792 793 794 795 796 797 797 798 798 799 799 799 800 800 801
719 717 715 714 713 712 710 710 709 707 706 705 705 704 705 705 706 707 709 710 713 716 719 722 725 728 730 732 734 737 742 747 750 753 755 757 758 760 762 765 769 771 774 775 777 779 780 782 783 784 785 787 788 789 790 790 790 791 791 791 791 791 792 793 793 793 793 792 792 792 793 794 795 796 796 797 798 799 800 800 801 801 801 802 803
714 713 711 710 708 707 706 704 703 702 701 701 701 700 700 701 701 702 704 706 709 713 716 719 722 725 727 729 730 733 737 741 746 750 753 755 757 758 761 764 767 770 773 775 776 778 780 781 782 783 785 786 787 789 789 789 790 791 791 791 791 792 793 793 794 794 794 794 793 793 794 795 796 796 797 798 799 800 801 802 803 803 803 804 805
709 707 706 704 703 702 700 699 698 697 696 696 696 696 696 696 696 697 699 702 705 708 712 715 718 721 724 726 727 730 733 737 742 747 751 753 755 757 759 762 766 769 771 774 776 777 779 780 782 783 784 786 787 788 789 789 790 791 791 791 792 792 793 794 794 795 795 794 794 794 795 795 796 797 798 799 800 801 802 803 804 805 805 806 807
704 702 700 698 697 696 695 694 693 692 691 691 692 692 692 692 692 692 694 697 700 703 707 711 714 717 721 724 726 729 732 735 739 744 748 751 754 756 758 761 764 767 770 772 775 776 778 780 781 783 784 786 787 788 788 789 790 791 791 792 792 793 794 795 795 795 795 795 795 795 795 796 797 798 799 800 801 802 803 804 805 806 807 808 809
699 696 694 693 691 690 689 688 687 687 686 686 686 686 687 687 687 687 690 693 695 698 702 706 709 712 716 720 723 727 730 733 737 742 746 749 752 755 757 760 763 766 769 771 773 775 778 780 781 782 784 785 787 788 788 789 790 791 792 792 792 793 794 795 796 796 796 796 796 796 796 797 798 799 800 801 802 803 804 805 807 808 809 809 811
693 690 688 686 685 683 682 682 681 680 680 680 680 681 681 681 681 682 685 687 690 693 697 701 705 708 712 716 719 723 727 731 736 740 743 747 750 753 756 759 762 765 768 770 773 775 777 779 780 782 783 785 786 788 789 789 790 791 792 793 793 794 795 796 796 797 797 797 797 797 797 798 799 800 801 802 803 804 805 807 808 809 810 811 812